Time,TemperatureF,DewpointF,PressureIn,WindDirection,WindDirectionDegrees,WindSpeedMPH,WindSpeedGustMPH,Humidity,HourlyPrecipIn,Conditions,Clouds,dailyrainin,SoftwareType,DateUTC
2013-01-08 00:00:00,39.8,11.6,30.01,ENE,78,0.0,0.0,31,0.00,CLR,,0.00,WeatherDisplay:10.37,2013-01-08 08:00:00,
2013-01-08 00:10:00,39.6,12.1,30.01,ENE,78,0.0,0.0,32,0.00,CLR,,0.00,WeatherDisplay:10.37,2013-01-08 08:10:00,
2013-01-08 00:20:00,39.2,14.4,30.01,ENE,78,0.0,2.0,36,0.00,CLR,,0.00,WeatherDisplay:10.37,2013-01-08 08:20:00,
2013-01-08 00:30:00,42.1,17.7,29.99,ENE,78,2.0,6.0,37,0.00,CLR,,0.00,WeatherDisplay:10.37,2013-01-08 08:30:00,
2013-01-08 00:40:00,46.1,17.8,29.99,ENE,78,3.0,4.0,32,0.00,CLR,,0.00,WeatherDisplay:10.37,2013-01-08 08:40:00,
2013-01-08 00:50:00,45.4,18.6,30.00,East,87,3.0,7.0,34,0.00,CLR,,0.00,WeatherDisplay:10.37,2013-01-08 08:50:00,
2013-01-08 01:00:00,46.0,20.5,29.99,East,92,2.0,3.0,36,0.00,CLR,,0.00,WeatherDisplay:10.37,2013-01-08 09:00:00,
2013-01-08 01:05:00,46.2,20.0,29.99,East,92,0.0,1.0,35,0.00,CLR,,0.00,WeatherDisplay:10.37,2013-01-08 09:05:00,
2013-01-08 01:10:00,47.2,20.2,29.98,East,92,0.0,0.0,34,0.00,CLR,,0.00,WeatherDisplay:10.37,2013-01-08 09:10:00,
2013-01-08 01:20:00,45.0,17.6,29.98,South,171,7.0,12.0,33,0.00,CLR,,0.00,WeatherDisplay:10.37,2013-01-08 09:20:00,
2013-01-08 01:30:00,42.8,18.2,29.98,SSW,205,1.0,5.0,37,0.00,CLR,,0.00,WeatherDisplay:10.37,2013-01-08 09:30:00,
2013-01-08 01:40:00,41.3,18.2,29.99,SSW,204,0.0,2.0,39,0.00,CLR,,0.00,WeatherDisplay:10.37,2013-01-08 09:40:00,
2013-01-08 01:50:00,41.0,20.7,29.98,SSW,200,3.0,6.0,44,0.00,CLR,,0.00,WeatherDisplay:10.37,2013-01-08 09:50:00,
2013-01-08 02:00:00,41.5,19.5,29.99,SSW,193,1.0,4.0,41,0.00,CLR,,0.00,WeatherDisplay:10.37,2013-01-08 10:00:00,
2013-01-08 02:05:00,41.2,20.4,29.99,SSW,194,5.0,7.0,43,0.00,CLR,,0.00,WeatherDisplay:10.37,2013-01-08 10:05:00,
2013-01-08 02:10:00,40.9,20.6,29.99,SSW,196,1.0,5.0,44,0.00,CLR,,0.00,WeatherDisplay:10.37,2013-01-08 10:10:00,
2013-01-08 02:20:00,39.9,20.2,30.00,SSW,198,1.0,4.0,45,0.00,CLR,,0.00,WeatherDisplay:10.37,2013-01-08 10:20:00,
2013-01-08 02:30:00,39.6,21.0,30.01,SSW,198,0.0,0.0,47,0.00,CLR,,0.00,WeatherDisplay:10.37,2013-01-08 10:30:00,
2013-01-08 02:40:00,39.3,19.7,30.02,SSW,198,0.0,1.0,45,0.00,CLR,,0.00,WeatherDisplay:10.37,2013-01-08 10:40:00,
2013-01-08 02:50:00,38.9,20.8,30.02,SSW,198,2.0,4.0,48,0.00,CLR,,0.00,WeatherDisplay:10.37,2013-01-08 10:50:00,
2013-01-08 03:00:00,38.8,20.8,30.02,SSW,198,0.0,3.0,48,0.00,CLR,,0.00,WeatherDisplay:10.37,2013-01-08 11:00:00,
2013-01-08 03:05:00,39.7,23.0,30.01,SSW,198,0.0,0.0,51,0.00,CLR,,0.00,WeatherDisplay:10.37,2013-01-08 11:05:00,
2013-01-08 03:10:00,40.9,22.2,30.01,SSW,198,0.0,0.0,47,0.00,CLR,,0.00,WeatherDisplay:10.37,2013-01-08 11:10:00,
2013-01-08 03:20:00,39.3,20.7,30.00,SSW,198,0.0,0.0,47,0.00,CLR,,0.00,WeatherDisplay:10.37,2013-01-08 11:20:00,
2013-01-08 03:30:00,39.3,22.2,30.03,SSW,198,0.0,3.0,50,0.00,CLR,,0.00,WeatherDisplay:10.37,2013-01-08 11:30:00,
2013-01-08 03:40:00,39.5,22.8,30.02,SSW,198,2.0,4.0,51,0.00,CLR,,0.00,WeatherDisplay:10.37,2013-01-08 11:40:00,
2013-01-08 03:50:00,38.5,22.0,30.02,SSW,198,0.0,2.0,51,0.00,CLR,,0.00,WeatherDisplay:10.37,2013-01-08 11:50:00,
2013-01-08 04:00:00,37.5,21.9,30.01,SSW,198,0.0,1.0,53,0.00,CLR,,0.00,WeatherDisplay:10.37,2013-01-08 12:00:00,
2013-01-08 04:05:00,37.9,23.1,30.01,SSW,198,5.0,6.0,55,0.00,CLR,,0.00,WeatherDisplay:10.37,2013-01-08 12:05:00,
2013-01-08 04:10:00,40.0,24.2,30.01,SSW,194,7.0,9.0,53,0.00,CLR,,0.00,WeatherDisplay:10.37,2013-01-08 12:10:00,
2013-01-08 04:20:00,41.0,23.8,30.00,SSW,196,0.0,2.0,50,0.00,CLR,,0.00,WeatherDisplay:10.37,2013-01-08 12:20:00,
2013-01-08 04:30:00,40.0,21.8,30.02,SSW,196,1.0,4.0,48,0.00,CLR,,0.00,WeatherDisplay:10.37,2013-01-08 12:30:00,
2013-01-08 04:40:00,38.4,22.8,30.03,SSW,196,1.0,2.0,53,0.00,CLR,,0.00,WeatherDisplay:10.37,2013-01-08 12:40:00,
2013-01-08 04:50:00,37.5,21.9,30.02,SSW,196,2.0,4.0,53,0.00,CLR,,0.00,WeatherDisplay:10.37,2013-01-08 12:50:00,
2013-01-08 05:00:00,37.6,23.3,30.03,SSW,196,0.0,2.0,56,0.00,CLR,,0.00,WeatherDisplay:10.37,2013-01-08 13:00:00,
2013-01-08 05:05:00,38.1,23.8,30.03,SSW,196,0.0,0.0,56,0.00,CLR,,0.00,WeatherDisplay:10.37,2013-01-08 13:05:00,
2013-01-08 05:10:00,39.0,23.3,30.04,SSW,196,0.0,0.0,53,0.00,CLR,,0.00,WeatherDisplay:10.37,2013-01-08 13:10:00,
2013-01-08 05:20:00,39.2,23.0,30.04,SSW,196,0.0,0.0,52,0.00,CLR,,0.00,WeatherDisplay:10.37,2013-01-08 13:20:00,
2013-01-08 05:30:00,41.1,24.8,30.05,SSW,196,0.0,0.0,52,0.00,CLR,,0.00,WeatherDisplay:10.37,2013-01-08 13:30:00,
2013-01-08 05:40:00,39.1,22.9,30.06,SSW,196,0.0,0.0,52,0.00,CLR,,0.00,WeatherDisplay:10.37,2013-01-08 13:40:00,
2013-01-08 05:50:00,38.2,23.9,30.06,SSW,196,0.0,1.0,56,0.00,CLR,,0.00,WeatherDisplay:10.37,2013-01-08 13:50:00,
2013-01-08 06:00:00,37.3,23.1,30.07,SSW,196,2.0,3.0,56,0.00,CLR,,0.00,WeatherDisplay:10.37,2013-01-08 14:00:00,
2013-01-08 06:10:00,38.6,24.2,30.07,SSW,196,0.0,3.0,56,0.00,CLR,,0.00,WeatherDisplay:10.37,2013-01-08 14:10:00,
2013-01-08 06:20:00,38.9,24.5,30.06,SSW,196,3.0,4.0,56,0.00,CLR,,0.00,WeatherDisplay:10.37,2013-01-08 14:20:00,
2013-01-08 06:30:00,41.2,26.7,30.07,SSW,196,1.0,2.0,56,0.00,CLR,,0.00,WeatherDisplay:10.37,2013-01-08 14:30:00,
2013-01-08 06:40:00,44.1,27.6,30.06,SSW,196,0.0,4.0,52,0.00,CLR,,0.00,WeatherDisplay:10.37,2013-01-08 14:40:00,
2013-01-08 06:50:00,47.7,28.4,30.06,NW,323,3.0,5.0,47,0.00,CLR,,0.00,WeatherDisplay:10.37,2013-01-08 14:50:00,
2013-01-08 07:00:00,48.0,28.2,30.07,NW,323,0.0,4.0,46,0.00,CLR,,0.00,WeatherDisplay:10.37,2013-01-08 15:00:00,
2013-01-08 07:05:00,47.1,27.9,30.08,NW,323,0.0,0.0,47,0.00,CLR,,0.00,WeatherDisplay:10.37,2013-01-08 15:05:00,
2013-01-08 07:10:00,44.7,26.2,30.09,NW,323,1.0,3.0,48,0.00,CLR,,0.00,WeatherDisplay:10.37,2013-01-08 15:10:00,
2013-01-08 07:20:00,42.7,26.3,30.09,NW,323,2.0,4.0,52,0.00,CLR,,0.00,WeatherDisplay:10.37,2013-01-08 15:20:00,
2013-01-08 07:30:00,42.9,27.4,30.11,NW,323,1.0,4.0,54,0.00,CLR,,0.00,WeatherDisplay:10.37,2013-01-08 15:30:00,
2013-01-08 07:40:00,42.9,26.4,30.11,NW,323,0.0,4.0,52,0.00,CLR,,0.00,WeatherDisplay:10.37,2013-01-08 15:40:00,
2013-01-08 07:50:00,43.1,27.1,30.12,NW,323,0.0,0.0,53,0.00,CLR,,0.00,WeatherDisplay:10.37,2013-01-08 15:50:00,
2013-01-08 08:00:00,45.1,28.1,30.12,NW,323,1.0,2.0,51,0.00,CLR,,0.00,WeatherDisplay:10.37,2013-01-08 16:00:00,
2013-01-08 08:10:00,46.2,27.6,30.12,NW,320,1.0,3.0,48,0.00,CLR,,0.00,WeatherDisplay:10.37,2013-01-08 16:10:00,
2013-01-08 08:20:00,46.7,27.5,30.12,WNW,288,2.0,4.0,47,0.00,CLR,,0.00,WeatherDisplay:10.37,2013-01-08 16:20:00,
2013-01-08 08:30:00,48.7,28.3,30.13,WNW,288,2.0,6.0,45,0.00,CLR,,0.00,WeatherDisplay:10.37,2013-01-08 16:30:00,
2013-01-08 08:40:00,50.5,28.2,30.13,WNW,295,0.0,4.0,42,0.00,CLR,,0.00,WeatherDisplay:10.37,2013-01-08 16:40:00,
2013-01-08 08:50:00,51.4,28.5,30.13,WNW,295,2.0,5.0,41,0.00,CLR,,0.00,WeatherDisplay:10.37,2013-01-08 16:50:00,
2013-01-08 09:00:00,52.2,28.0,30.13,WNW,295,3.0,6.0,39,0.00,CLR,,0.00,WeatherDisplay:10.37,2013-01-08 17:00:00,
2013-01-08 09:10:00,52.9,28.0,30.12,WNW,299,5.0,6.0,38,0.00,CLR,,0.00,WeatherDisplay:10.37,2013-01-08 17:10:00,
2013-01-08 09:20:00,53.6,27.3,30.12,WNW,300,2.0,4.0,36,0.00,CLR,,0.00,WeatherDisplay:10.37,2013-01-08 17:20:00,
2013-01-08 09:30:00,53.9,26.8,30.11,WNW,300,0.0,0.0,35,0.00,CLR,,0.00,WeatherDisplay:10.37,2013-01-08 17:30:00,
2013-01-08 09:40:00,54.1,27.0,30.11,NW,318,1.0,4.0,35,0.00,CLR,,0.00,WeatherDisplay:10.37,2013-01-08 17:40:00,
2013-01-08 09:50:00,55.9,27.9,30.11,NW,325,0.0,0.0,34,0.00,CLR,,0.00,WeatherDisplay:10.37,2013-01-08 17:50:00,
2013-01-08 10:00:00,57.6,27.9,30.10,NW,325,0.0,0.0,32,0.00,CLR,,0.00,WeatherDisplay:10.37,2013-01-08 18:00:00,
2013-01-08 10:05:00,58.1,27.6,30.10,NW,325,0.0,0.0,31,0.00,CLR,,0.00,WeatherDisplay:10.37,2013-01-08 18:05:00,
2013-01-08 10:10:00,57.8,28.1,30.10,NW,325,0.0,3.0,32,0.00,CLR,,0.00,WeatherDisplay:10.37,2013-01-08 18:10:00,
2013-01-08 10:20:00,58.0,28.3,30.10,NW,325,0.0,0.0,32,0.00,CLR,,0.00,WeatherDisplay:10.37,2013-01-08 18:20:00,
2013-01-08 10:30:00,58.6,28.0,30.09,NW,325,0.0,0.0,31,0.00,CLR,,0.00,WeatherDisplay:10.37,2013-01-08 18:30:00,
2013-01-08 10:40:00,60.1,28.5,30.08,NW,325,1.0,3.0,30,0.00,CLR,,0.00,WeatherDisplay:10.37,2013-01-08 18:40:00,
2013-01-08 10:50:00,62.1,27.7,30.08,NW,325,0.0,0.0,27,0.00,CLR,,0.00,WeatherDisplay:10.37,2013-01-08 18:50:00,
2013-01-08 11:00:00,62.3,27.9,30.08,NW,325,0.0,0.0,27,0.00,CLR,,0.00,WeatherDisplay:10.37,2013-01-08 19:00:00,
2013-01-08 11:05:00,62.4,27.9,30.08,NW,325,0.0,0.0,27,0.00,CLR,,0.00,WeatherDisplay:10.37,2013-01-08 19:05:00,
2013-01-08 11:10:00,62.5,28.1,30.07,NW,325,0.0,0.0,27,0.00,CLR,,0.00,WeatherDisplay:10.37,2013-01-08 19:10:00,
2013-01-08 11:20:00,62.9,29.2,30.06,NW,325,0.0,0.0,28,0.00,CLR,,0.00,WeatherDisplay:10.37,2013-01-08 19:20:00,
2013-01-08 11:30:00,62.6,29.0,30.06,NW,325,0.0,2.0,28,0.00,CLR,,0.00,WeatherDisplay:10.37,2013-01-08 19:30:00,
2013-01-08 11:40:00,62.9,28.4,30.05,NW,325,0.0,3.0,27,0.00,CLR,,0.00,WeatherDisplay:10.37,2013-01-08 19:40:00,
2013-01-08 11:50:00,64.2,29.5,30.05,NW,325,0.0,4.0,27,0.00,CLR,,0.00,WeatherDisplay:10.37,2013-01-08 19:50:00,
2013-01-08 12:00:00,64.2,28.6,30.05,North,11,0.0,3.0,26,0.00,CLR,,0.00,WeatherDisplay:10.37,2013-01-08 20:00:00,
2013-01-08 12:05:00,64.5,28.8,30.04,NNE,12,0.0,3.0,26,0.00,CLR,,0.00,WeatherDisplay:10.37,2013-01-08 20:05:00,
2013-01-08 12:10:00,64.5,28.8,30.04,ENE,61,6.0,9.0,26,0.00,CLR,,0.00,WeatherDisplay:10.37,2013-01-08 20:10:00,
2013-01-08 12:20:00,64.5,27.9,30.04,East,91,3.0,7.0,25,0.00,CLR,,0.00,WeatherDisplay:10.37,2013-01-08 20:20:00,
2013-01-08 12:30:00,65.0,28.3,30.03,East,91,2.0,5.0,25,0.00,CLR,,0.00,WeatherDisplay:10.37,2013-01-08 20:30:00,
2013-01-08 12:40:00,65.2,28.5,30.03,East,87,3.0,7.0,25,0.00,CLR,,0.00,WeatherDisplay:10.37,2013-01-08 20:40:00,
2013-01-08 12:50:00,64.4,27.8,30.02,ENE,74,3.0,6.0,25,0.00,CLR,,0.00,WeatherDisplay:10.37,2013-01-08 20:50:00,
2013-01-08 13:00:00,64.2,27.6,30.02,East,82,3.0,6.0,25,0.00,CLR,,0.00,WeatherDisplay:10.37,2013-01-08 21:00:00,
2013-01-08 13:10:00,65.6,27.8,30.01,East,82,0.0,3.0,24,0.00,CLR,,0.00,WeatherDisplay:10.37,2013-01-08 21:10:00,
2013-01-08 13:20:00,65.6,27.8,30.01,East,82,0.0,2.0,24,0.00,CLR,,0.00,WeatherDisplay:10.37,2013-01-08 21:20:00,
2013-01-08 13:30:00,65.5,27.7,30.02,East,80,1.0,5.0,24,0.00,CLR,,0.00,WeatherDisplay:10.37,2013-01-08 21:30:00,
2013-01-08 13:40:00,65.3,27.5,30.02,East,81,3.0,5.0,24,0.00,CLR,,0.00,WeatherDisplay:10.37,2013-01-08 21:40:00,
2013-01-08 13:50:00,66.3,27.4,30.02,East,86,0.0,4.0,23,0.00,CLR,,0.00,WeatherDisplay:10.37,2013-01-08 21:50:00,
2013-01-08 14:00:00,65.6,26.7,30.02,East,80,0.0,6.0,23,0.00,CLR,,0.00,WeatherDisplay:10.37,2013-01-08 22:00:00,
2013-01-08 14:05:00,65.9,27.0,30.02,East,82,3.0,6.0,23,0.00,CLR,,0.00,WeatherDisplay:10.37,2013-01-08 22:05:00,
2013-01-08 14:10:00,66.0,27.1,30.02,East,82,0.0,4.0,23,0.00,CLR,,0.00,WeatherDisplay:10.37,2013-01-08 22:10:00,
2013-01-08 14:20:00,66.2,26.2,30.02,East,79,1.0,4.0,22,0.00,CLR,,0.00,WeatherDisplay:10.37,2013-01-08 22:20:00,
2013-01-08 14:30:00,66.4,26.4,30.02,East,83,3.0,7.0,22,0.00,CLR,,0.00,WeatherDisplay:10.37,2013-01-08 22:30:00,
2013-01-08 14:40:00,66.7,26.6,30.02,East,91,1.0,5.0,22,0.00,CLR,,0.00,WeatherDisplay:10.37,2013-01-08 22:40:00,
2013-01-08 14:50:00,67.9,26.5,30.02,East,96,0.0,3.0,21,0.00,CLR,,0.00,WeatherDisplay:10.37,2013-01-08 22:50:00,
2013-01-08 15:00:00,67.8,26.4,30.02,East,97,1.0,6.0,21,0.00,CLR,,0.00,WeatherDisplay:10.37,2013-01-08 23:00:00,
2013-01-08 15:05:00,67.4,26.1,30.02,East,98,2.0,4.0,21,0.00,CLR,,0.00,WeatherDisplay:10.37,2013-01-08 23:05:00,
2013-01-08 15:10:00,67.6,26.2,30.02,East,98,2.0,4.0,21,0.00,CLR,,0.00,WeatherDisplay:10.37,2013-01-08 23:10:00,
2013-01-08 15:20:00,67.6,26.2,30.02,East,98,0.0,3.0,21,0.00,CLR,,0.00,WeatherDisplay:10.37,2013-01-08 23:20:00,
2013-01-08 15:30:00,67.3,26.0,30.01,East,98,1.0,4.0,21,0.00,CLR,,0.00,WeatherDisplay:10.37,2013-01-08 23:30:00,
2013-01-08 15:40:00,66.6,26.5,30.01,East,97,1.0,5.0,22,0.00,CLR,,0.00,WeatherDisplay:10.37,2013-01-08 23:40:00,
2013-01-08 15:50:00,66.0,26.0,30.02,East,96,3.0,4.0,22,0.00,CLR,,0.00,WeatherDisplay:10.37,2013-01-08 23:50:00,
2013-01-08 16:00:00,65.5,25.6,30.02,East,93,3.0,6.0,22,0.00,CLR,,0.00,WeatherDisplay:10.37,2013-01-09 00:00:00,
2013-01-08 16:05:00,65.3,25.4,30.02,East,91,3.0,5.0,22,0.00,CLR,,0.00,WeatherDisplay:10.37,2013-01-09 00:05:00,
2013-01-08 16:10:00,65.0,26.3,30.02,East,89,3.0,5.0,23,0.00,CLR,,0.00,WeatherDisplay:10.37,2013-01-09 00:10:00,
2013-01-08 16:20:00,64.4,24.7,30.03,East,87,2.0,5.0,22,0.00,CLR,,0.00,WeatherDisplay:10.37,2013-01-09 00:20:00,
2013-01-08 16:30:00,64.0,25.4,30.04,East,86,0.0,5.0,23,0.00,CLR,,0.00,WeatherDisplay:10.37,2013-01-09 00:30:00,
2013-01-08 16:40:00,63.4,25.9,30.04,East,86,1.0,3.0,24,0.00,CLR,,0.00,WeatherDisplay:10.37,2013-01-09 00:40:00,
2013-01-08 16:50:00,62.0,25.8,30.05,East,86,2.0,5.0,25,0.00,CLR,,0.00,WeatherDisplay:10.37,2013-01-09 00:50:00,
2013-01-08 17:00:00,60.7,25.6,30.05,East,86,1.0,3.0,26,0.00,CLR,,0.00,WeatherDisplay:10.37,2013-01-09 01:00:00,
2013-01-08 17:05:00,60.1,25.1,30.06,East,86,0.0,0.0,26,0.00,CLR,,0.00,WeatherDisplay:10.37,2013-01-09 01:05:00,
2013-01-08 17:10:00,59.6,25.5,30.06,East,86,0.0,0.0,27,0.00,CLR,,0.00,WeatherDisplay:10.37,2013-01-09 01:10:00,
2013-01-08 17:20:00,58.6,24.7,30.06,East,86,0.0,0.0,27,0.00,CLR,,0.00,WeatherDisplay:10.37,2013-01-09 01:20:00,
2013-01-08 17:30:00,57.5,23.7,30.07,East,86,0.0,0.0,27,0.00,CLR,,0.00,WeatherDisplay:10.37,2013-01-09 01:30:00,
2013-01-08 17:40:00,56.6,23.9,30.08,East,86,0.0,0.0,28,0.00,CLR,,0.00,WeatherDisplay:10.37,2013-01-09 01:40:00,
2013-01-08 17:50:00,55.4,22.8,30.08,East,86,0.0,0.0,28,0.00,CLR,,0.00,WeatherDisplay:10.37,2013-01-09 01:50:00,
2013-01-08 18:00:00,53.3,24.9,30.09,East,86,0.0,0.0,33,0.00,CLR,,0.00,WeatherDisplay:10.37,2013-01-09 02:00:00,
2013-01-08 18:05:00,52.7,22.9,30.10,East,96,3.0,6.0,31,0.00,CLR,,0.00,WeatherDisplay:10.37,2013-01-09 02:05:00,
2013-01-08 18:10:00,51.7,23.5,30.10,ESE,112,2.0,6.0,33,0.00,CLR,,0.00,WeatherDisplay:10.37,2013-01-09 02:10:00,
2013-01-08 18:20:00,52.0,23.8,30.11,ESE,116,0.0,0.0,33,0.00,CLR,,0.00,WeatherDisplay:10.37,2013-01-09 02:20:00,
2013-01-08 18:30:00,51.0,23.6,30.10,ESE,116,0.0,0.0,34,0.00,CLR,,0.00,WeatherDisplay:10.37,2013-01-09 02:30:00,
2013-01-08 18:40:00,50.7,24.7,30.10,ESE,116,0.0,0.0,36,0.00,CLR,,0.00,WeatherDisplay:10.37,2013-01-09 02:40:00,
2013-01-08 18:50:00,51.6,24.1,30.10,ESE,116,0.0,0.0,34,0.00,CLR,,0.00,WeatherDisplay:10.37,2013-01-09 02:50:00,
2013-01-08 19:00:00,51.0,23.6,30.11,ESE,116,0.0,0.0,34,0.00,CLR,,0.00,WeatherDisplay:10.37,2013-01-09 03:00:00,
2013-01-08 19:05:00,50.5,21.7,30.11,SE,125,3.0,6.0,32,0.00,CLR,,0.00,WeatherDisplay:10.37,2013-01-09 03:05:00,
2013-01-08 19:10:00,48.3,21.9,30.11,SE,137,0.0,7.0,35,0.00,CLR,,0.00,WeatherDisplay:10.37,2013-01-09 03:10:00,
2013-01-08 19:20:00,48.2,22.5,30.11,SE,139,1.0,5.0,36,0.00,CLR,,0.00,WeatherDisplay:10.37,2013-01-09 03:20:00,
2013-01-08 19:30:00,47.1,22.1,30.10,SE,139,1.0,3.0,37,0.00,CLR,,0.00,WeatherDisplay:10.37,2013-01-09 03:30:00,
2013-01-08 19:40:00,46.3,22.1,30.11,SE,139,0.0,1.0,38,0.00,CLR,,0.00,WeatherDisplay:10.37,2013-01-09 03:40:00,
2013-01-08 19:50:00,46.1,23.1,30.12,SE,139,1.0,4.0,40,0.00,CLR,,0.00,WeatherDisplay:10.37,2013-01-09 03:50:00,
2013-01-08 20:00:00,46.4,23.4,30.12,SE,140,3.0,6.0,40,0.00,CLR,,0.00,WeatherDisplay:10.37,2013-01-09 04:00:00,
2013-01-08 20:05:00,46.7,23.6,30.12,SE,140,3.0,7.0,40,0.00,CLR,,0.00,WeatherDisplay:10.37,2013-01-09 04:05:00,
2013-01-08 20:10:00,46.8,23.7,30.12,SE,141,3.0,7.0,40,0.00,CLR,,0.00,WeatherDisplay:10.37,2013-01-09 04:10:00,
2013-01-08 20:20:00,46.1,23.7,30.12,SE,142,1.0,3.0,41,0.00,CLR,,0.00,WeatherDisplay:10.37,2013-01-09 04:20:00,
2013-01-08 20:30:00,46.1,23.7,30.10,SE,142,2.0,5.0,41,0.00,CLR,,0.00,WeatherDisplay:10.37,2013-01-09 04:30:00,
2013-01-08 20:40:00,46.5,24.0,30.10,SE,142,2.0,4.0,41,0.00,CLR,,0.00,WeatherDisplay:10.37,2013-01-09 04:40:00,
2013-01-08 20:50:00,46.2,23.8,30.10,SE,142,2.0,5.0,41,0.00,CLR,,0.00,WeatherDisplay:10.37,2013-01-09 04:50:00,
2013-01-08 21:05:00,45.8,23.9,30.11,SE,145,3.0,6.0,42,0.00,CLR,,0.00,WeatherDisplay:10.37,2013-01-09 05:05:00,
2013-01-08 21:10:00,45.6,23.8,30.11,SE,146,1.0,5.0,42,0.00,CLR,,0.00,WeatherDisplay:10.37,2013-01-09 05:10:00,
2013-01-08 21:15:00,45.4,23.6,30.12,SE,146,2.0,6.0,42,0.00,CLR,,0.00,WeatherDisplay:10.37,2013-01-09 05:15:00,
2013-01-08 21:20:00,45.2,24.0,30.12,SSE,147,5.0,7.0,43,0.00,CLR,,0.00,WeatherDisplay:10.37,2013-01-09 05:20:00,
2013-01-08 21:30:00,45.4,24.2,30.11,SSE,148,1.0,5.0,43,0.00,CLR,,0.00,WeatherDisplay:10.37,2013-01-09 05:30:00,
2013-01-08 21:35:00,45.2,24.6,30.11,SSE,149,3.0,6.0,44,0.00,CLR,,0.00,WeatherDisplay:10.37,2013-01-09 05:35:00,
2013-01-08 21:40:00,45.2,24.6,30.11,SSE,149,1.0,4.0,44,0.00,CLR,,0.00,WeatherDisplay:10.37,2013-01-09 05:40:00,
2013-01-08 21:50:00,44.8,24.2,30.12,SSE,149,0.0,3.0,44,0.00,CLR,,0.00,WeatherDisplay:10.37,2013-01-09 05:50:00,
2013-01-08 21:55:00,45.1,25.0,30.11,SSE,149,3.0,5.0,45,0.00,CLR,,0.00,WeatherDisplay:10.37,2013-01-09 05:55:00,
2013-01-08 22:05:00,45.2,24.6,30.11,SSE,149,2.0,5.0,44,0.00,CLR,,0.00,WeatherDisplay:10.37,2013-01-09 06:05:00,
2013-01-08 22:10:00,45.5,24.8,30.11,SSE,149,3.0,6.0,44,0.00,CLR,,0.00,WeatherDisplay:10.37,2013-01-09 06:10:00,
2013-01-08 22:20:00,45.4,24.8,30.11,SSE,150,1.0,4.0,44,0.00,CLR,,0.00,WeatherDisplay:10.37,2013-01-09 06:20:00,
2013-01-08 22:30:00,44.2,24.2,30.11,SSE,150,2.0,6.0,45,0.00,CLR,,0.00,WeatherDisplay:10.37,2013-01-09 06:30:00,
2013-01-08 22:40:00,42.9,24.0,30.11,SSE,150,1.0,4.0,47,0.00,CLR,,0.00,WeatherDisplay:10.37,2013-01-09 06:40:00,
2013-01-08 22:50:00,42.5,23.7,30.11,SSE,151,3.0,5.0,47,0.00,CLR,,0.00,WeatherDisplay:10.37,2013-01-09 06:50:00,
2013-01-08 23:00:00,42.5,23.7,30.11,SSE,155,2.0,6.0,47,0.00,CLR,,0.00,WeatherDisplay:10.37,2013-01-09 07:00:00,
2013-01-08 23:05:00,42.3,24.0,30.12,SSE,155,1.0,5.0,48,0.00,CLR,,0.00,WeatherDisplay:10.37,2013-01-09 07:05:00,
2013-01-08 23:10:00,42.2,23.9,30.12,SSE,155,2.0,5.0,48,0.00,CLR,,0.00,WeatherDisplay:10.37,2013-01-09 07:10:00,
2013-01-08 23:20:00,41.8,24.0,30.12,SSE,155,2.0,5.0,49,0.00,CLR,,0.00,WeatherDisplay:10.37,2013-01-09 07:20:00,
2013-01-08 23:30:00,41.6,24.3,30.12,SSE,155,0.0,3.0,50,0.00,CLR,,0.00,WeatherDisplay:10.37,2013-01-09 07:30:00,
2013-01-08 23:40:00,41.6,24.3,30.12,SSE,155,2.0,4.0,50,0.00,CLR,,0.00,WeatherDisplay:10.37,2013-01-09 07:40:00,
2013-01-08 23:50:00,42.1,24.8,30.12,SSE,155,2.0,4.0,50,0.00,CLR,,0.00,WeatherDisplay:10.37,2013-01-09 07:50:00,